| time (UTC) | temp F | wind direction | speed MPH | gust MPH | rain 1hr in | rain 24hr in | rain mn in | humidity % | barometer mb |
| 20260831184604 | 83 | 215 | 0.0 | 3.0 | 0.00 | 0.00 | 0.00 | 70 | 1014.8 |
| 20260831183054 | 84 | 240 | 0.0 | 0.0 | 0.00 | 0.00 | 0.00 | 66 | 1015.0 |
| 20260831181550 | 83 | 240 | 0.0 | 0.0 | 0.00 | 0.00 | 0.00 | 73 | 1015.1 |
| 20260831180046 | 81 | 245 | 0.0 | 0.0 | 0.00 | 0.00 | 0.00 | 76 | 1015.2 |
| 20260831174551 | 80 | 245 | 0.0 | 2.0 | 0.00 | 0.00 | 0.00 | 78 | 1014.9 |
| 20260831173046 | 80 | 279 | 0.0 | 0.0 | 0.00 | 0.00 | 0.00 | 78 | 1015.0 |
| 20260831171547 | 80 | 279 | 0.0 | 0.0 | 0.00 | 0.00 | 0.00 | 76 | 1015.4 |
| 20260831170125 | 80 | 272 | 0.0 | 0.0 | 0.00 | 0.00 | 0.00 | 76 | 1016.1 |
| 20260831164545 | 81 | 251 | 0.0 | 0.0 | 0.00 | 0.00 | 0.00 | 75 | 1016.4 |
| 20260831163044 | 81 | 315 | 0.0 | 0.0 | 0.00 | 0.00 | 0.00 | 73 | 1016.3 |
| 20260831161541 | 81 | 243 | 0.0 | 0.0 | 0.00 | 0.00 | 0.00 | 75 | 1016.4 |
| 20260831160038 | 80 | 230 | 0.0 | 0.0 | 0.00 | 0.00 | 0.00 | 80 | 1016.4 |
| 20260831154534 | 78 | 230 | 0.0 | 0.0 | 0.00 | 0.06 | 0.00 | 82 | 1016.3 |
| 20260831153031 | 77 | 230 | 0.0 | 0.0 | 0.00 | 0.06 | 0.00 | 83 | 1015.9 |
| 20260831151529 | 77 | 227 | 0.0 | 0.0 | 0.00 | 0.06 | 0.00 | 83 | 1015.8 |
| 20260831150030 | 77 | 226 | 0.0 | 3.0 | 0.00 | 0.06 | 0.00 | 83 | 1015.8 |
| 20260831144532 | 77 | 226 | 2.0 | 6.0 | 0.00 | 0.11 | 0.00 | 83 | 1015.8 |
| 20260831143026 | 76 | 224 | 0.0 | 1.0 | 0.00 | 0.11 | 0.00 | 85 | 1015.7 |
| 20260831141524 | 76 | 225 | 1.0 | 5.0 | 0.00 | 0.11 | 0.00 | 85 | 1015.6 |
| 20260831140026 | 75 | 226 | 0.0 | 5.0 | 0.00 | 0.11 | 0.00 | 86 | 1015.5 |
| 20260831134521 | 75 | 246 | 0.0 | 3.0 | 0.00 | 0.14 | 0.00 | 86 | 1015.5 |
| 20260831133025 | 74 | 232 | 0.0 | 0.0 | 0.00 | 0.14 | 0.00 | 87 | 1015.6 |
| 20260831131517 | 74 | 232 | 0.0 | 4.0 | 0.00 | 0.14 | 0.00 | 89 | 1015.5 |
| 20260831130016 | 73 | 222 | 0.0 | 0.0 | 0.00 | 0.14 | 0.00 | 89 | 1015.5 |
| 20260831124517 | 73 | 222 | 0.0 | 0.0 | 0.00 | 0.14 | 0.00 | 90 | 1015.2 |
| 20260831123016 | 73 | 222 | 0.0 | 0.0 | 0.00 | 0.14 | 0.00 | 89 | 1015.2 |
| 20260831121518 | 73 | 222 | 0.0 | 0.0 | 0.00 | 0.14 | 0.00 | 88 | 1015.4 |
| 20260831120022 | 74 | 222 | 0.0 | 0.0 | 0.00 | 0.14 | 0.00 | 87 | 1015.5 |
| 20260831114515 | 73 | 222 | 0.0 | 0.0 | 0.00 | 0.14 | 0.00 | 87 | 1015.4 |
| 20260831113014 | 73 | 222 | 0.0 | 0.0 | 0.00 | 0.14 | 0.00 | 87 | 1015.4 |
| 20260831111525 | 73 | 222 | 0.0 | 0.0 | 0.00 | 0.14 | 0.00 | 87 | 1015.3 |
| 20260831110012 | 73 | 222 | 0.0 | 0.0 | 0.00 | 0.14 | 0.00 | 88 | 1015.3 |
| 20260831104517 | 73 | 222 | 0.0 | 0.0 | 0.00 | 0.15 | 0.00 | 88 | 1015.2 |
| 20260831103029 | 73 | 222 | 0.0 | 0.0 | 0.00 | 0.15 | 0.00 | 88 | 1015.3 |
| 20260831101511 | 73 | 222 | 0.0 | 0.0 | 0.00 | 0.15 | 0.00 | 88 | 1015.2 |
| 20260831100012 | 72 | 222 | 0.0 | 0.0 | 0.00 | 0.15 | 0.00 | 89 | 1015.1 |
| 20260831094522 | 72 | 222 | 0.0 | 0.0 | 0.00 | 0.15 | 0.00 | 89 | 1015.2 |
| 20260831093010 | 72 | 222 | 0.0 | 0.0 | 0.00 | 0.15 | 0.00 | 89 | 1015.3 |
| 20260831091509 | 72 | 222 | 0.0 | 0.0 | 0.00 | 0.15 | 0.00 | 89 | 1015.2 |
| 20260831090008 | 72 | 222 | 0.0 | 0.0 | 0.00 | 0.15 | 0.00 | 89 | 1015.2 |
| 20260831084507 | 72 | 222 | 0.0 | 0.0 | 0.00 | 0.15 | 0.00 | 89 | 1014.8 |
| 20260831083017 | 72 | 222 | 0.0 | 0.0 | 0.00 | 0.15 | 0.00 | 88 | 1014.9 |
| 20260831081504 | 73 | 222 | 0.0 | 0.0 | 0.00 | 0.15 | 0.00 | 88 | 1014.9 |
| 20260831080017 | 73 | 223 | 0.0 | 0.0 | 0.00 | 0.15 | 0.00 | 89 | 1014.9 |
| 20260831074503 | 73 | 223 | 0.0 | 0.0 | 0.00 | 0.15 | 0.00 | 89 | 1015.0 |
| 20260831073101 | 73 | 223 | 0.0 | 0.0 | 0.00 | 0.15 | 0.00 | 89 | 1015.2 |
| 20260831071558 | 73 | 222 | 0.0 | 0.0 | 0.00 | 0.15 | 0.00 | 89 | 1015.5 |
| 20260831070058 | 73 | 223 | 0.0 | 0.0 | 0.00 | 0.15 | 0.00 | 89 | 1015.5 |
| 20260831064557 | 73 | 223 | 0.0 | 0.0 | 0.00 | 0.15 | 0.00 | 89 | 1015.4 |
| 20260831063056 | 73 | 223 | 0.0 | 0.0 | 0.00 | 0.15 | 0.00 | 89 | 1015.5 |
| 20260831061554 | 73 | 223 | 0.0 | 0.0 | 0.00 | 0.15 | 0.00 | 89 | 1015.6 |
| 20260831060054 | 73 | 223 | 0.0 | 0.0 | 0.00 | 0.15 | 0.00 | 89 | 1015.7 |
| 20260831054551 | 73 | 222 | 0.0 | 0.0 | 0.00 | 0.15 | 0.00 | 89 | 1015.9 |
| 20260831053050 | 73 | 223 | 0.0 | 0.0 | 0.00 | 0.15 | 0.00 | 89 | 1015.9 |
| 20260831051549 | 73 | 222 | 0.0 | 0.0 | 0.00 | 0.15 | 0.00 | 89 | 1015.9 |
| 20260831050047 | 73 | 222 | 0.0 | 0.0 | 0.00 | 0.15 | 0.00 | 89 | 1016.0 |
| 20260831044549 | 73 | 222 | 0.0 | 0.0 | 0.00 | 0.15 | 0.00 | 89 | 1016.1 |
| 20260831043044 | 73 | 222 | 0.0 | 0.0 | 0.00 | 0.15 | 0.00 | 88 | 1016.2 |
| 20260831041559 | 73 | 222 | 0.0 | 0.0 | 0.00 | 0.15 | 0.00 | 88 | 1016.2 |
| 20260831040041 | 74 | 222 | 0.0 | 0.0 | 0.00 | 0.15 | 0.00 | 87 | 1016.1 |
| 20260831034539 | 74 | 222 | 0.0 | 5.0 | 0.00 | 0.15 | 0.15 | 87 | 1016.1 |
| 20260831033039 | 74 | 225 | 0.0 | 0.0 | 0.00 | 0.15 | 0.15 | 86 | 1016.0 |
| 20260831031543 | 74 | 226 | 0.0 | 7.0 | 0.00 | 0.15 | 0.15 | 85 | 1015.9 |
| 20260831030037 | 73 | 210 | 0.0 | 6.0 | 0.00 | 0.15 | 0.15 | 85 | 1015.8 |
| 20260831024547 | 73 | 215 | 1.0 | 8.0 | 0.00 | 0.15 | 0.15 | 85 | 1015.7 |
| 20260831023036 | 73 | 214 | 0.0 | 166.0 | 0.00 | 0.15 | 0.15 | 87 | 1015.8 |
| 20260831021534 | 73 | 220 | 0.0 | 6.0 | 0.00 | 0.15 | 0.15 | 87 | 1015.7 |
| 20260831020035 | 73 | 237 | 0.0 | 21.0 | 0.00 | 0.15 | 0.15 | 87 | 1015.7 |
| 20260831014533 | 73 | 228 | 0.0 | 20.0 | 0.00 | 0.15 | 0.15 | 87 | 1015.7 |
| 20260831013035 | 73 | 229 | 1.0 | 16.0 | 0.00 | 0.15 | 0.15 | 87 | 1015.6 |
| 20260831011531 | 73 | 221 | 0.0 | 17.0 | 0.00 | 0.15 | 0.15 | 88 | 1015.7 |
| 20260831010035 | 73 | 221 | 2.0 | 17.0 | 0.00 | 0.15 | 0.15 | 88 | 1015.5 |
| 20260831004529 | 73 | 225 | 2.0 | 11.0 | 0.00 | 0.15 | 0.15 | 88 | 1015.4 |
| 20260831003028 | 73 | 214 | 1.0 | 8.0 | 0.00 | 0.15 | 0.15 | 88 | 1015.4 |
| 20260831001526 | 73 | 194 | 0.0 | 0.0 | 0.00 | 0.15 | 0.15 | 88 | 1015.5 |
| 20260831000027 | 73 | 223 | 0.0 | 0.0 | 0.00 | 0.15 | 0.15 | 87 | 1015.7 |
| 20260830234539 | 74 | 197 | 0.0 | 4.0 | 0.00 | 0.15 | 0.15 | 86 | 1015.8 |
| 20260830233025 | 74 | 223 | 0.0 | 5.0 | 0.00 | 0.15 | 0.15 | 85 | 1016.3 |
| 20260830231524 | 74 | 220 | 0.0 | 6.0 | 0.00 | 0.15 | 0.15 | 84 | 1016.4 |
| 20260830230027 | 74 | 209 | 2.0 | 8.0 | 0.00 | 0.15 | 0.15 | 83 | 1016.2 |
| 20260830224523 | 74 | 233 | 0.0 | 5.0 | 0.00 | 0.15 | 0.15 | 83 | 1016.5 |
| 20260830223023 | 74 | 221 | 0.0 | 7.0 | 0.00 | 0.15 | 0.15 | 82 | 1016.4 |
| 20260830221529 | 74 | 202 | 0.0 | 0.0 | 0.00 | 0.15 | 0.15 | 81 | 1016.3 |
| 20260830220022 | 75 | 211 | 0.0 | 1.0 | 0.00 | 0.15 | 0.15 | 80 | 1016.6 |
| 20260830214521 | 75 | 219 | 0.0 | 6.0 | 0.00 | 0.15 | 0.15 | 81 | 1016.2 |
| 20260830213024 | 75 | 211 | 0.0 | 5.0 | 0.00 | 0.15 | 0.15 | 82 | 1015.8 |
| 20260830211527 | 75 | 208 | 0.0 | 8.0 | 0.00 | 0.15 | 0.15 | 81 | 1015.8 |
| 20260830210019 | 75 | 223 | 0.0 | 10.0 | 0.00 | 0.15 | 0.15 | 82 | 1015.5 |
| 20260830204531 | 75 | 232 | 0.0 | 0.0 | 0.00 | 0.15 | 0.15 | 83 | 1015.6 |
| 20260830203016 | 75 | 234 | 3.0 | 8.0 | 0.00 | 0.15 | 0.15 | 84 | 1015.9 |
| 20260830201515 | 74 | 230 | 0.0 | 7.0 | 0.00 | 0.15 | 0.15 | 85 | 1015.7 |
| 20260830200014 | 74 | 221 | 0.0 | 8.0 | 0.00 | 0.15 | 0.15 | 85 | 1015.8 |
| 20260830194513 | 74 | 215 | 0.0 | 9.0 | 0.00 | 0.15 | 0.15 | 86 | 1016.0 |
| 20260830193013 | 74 | 217 | 0.0 | 7.0 | 0.00 | 0.15 | 0.15 | 85 | 1016.1 |
| 20260830191511 | 74 | 238 | 0.0 | 7.0 | 0.00 | 0.15 | 0.15 | 84 | 1016.2 |
| 20260830190011 | 74 | 237 | 2.0 | 16.0 | 0.00 | 0.15 | 0.15 | 83 | 1015.9 |